Nairobi Jomo, Kenya

6:38 AM EAT on August 31, 2016 (GMT +0300)
Jomo Kenyatta

Weather History for HKJK - October, 2012

Change the Weather History Date:

Monday, October 15, 2012

  Actual Average (HKNW) Record (HKNW)
Temperature  
Mean Temperature 68 °F -  
Max Temperature 77 °F 72 °F 82 °F (2013)
Min Temperature 59 °F 61 °F 59 °F (2011)
Cooling Degree Days 3    
Growing Degree Days 18 (Base 50)    
Moisture  
Dew Point 58 °F    
Average Humidity 75    
Maximum Humidity 94    
Minimum Humidity 45    
Precipitation  
Precipitation 0.16 in - - ()
Sea Level Pressure  
Sea Level Pressure 30.14 in    
Wind  
Wind Speed 6 mph ()    
Max Wind Speed 16 mph    
Max Gust Speed -    
Visibility 7.5 miles    
Events Rain    
Averages and records for this station are not official NWS values.
T = Trace of Precipitation, MM = Missing Value Source: Averaged Metar Reports

Daily Weather History Graph

Daily Weather History Graph

Search for Another Location

Airport or City:

Trip Planner

Search our weather history database for the weather conditions in past years. The results will help you decide how hot, cold, wet, or windy it might be!

Date:

Astronomy

Oct. 15, 2012 Rise Set
Actual Time 6:13 AM EAT 6:22 PM EAT
Civil Twilight 5:52 AM EAT 6:43 PM EAT
Nautical Twilight 5:28 AM EAT 7:07 PM EAT
Astronomical Twilight 5:04 AM EAT 7:31 PM EAT
Moon 5:52 AM EAT (10/15) 6:21 PM EAT (10/15)
Length of Visible Light 12h 50m
Length of Day
12h 08m
Waning Crescent, 0% of the Moon is Illuminated
Oct 15
Waning Crescent
Oct 15
New
Oct 22
First Quarter
Oct 29
Full
Nov 7
Last Quarter

Hourly Weather History & Observations

Time (EAT) Temp. Dew Point Humidity Pressure Visibility Wind Dir Wind Speed Gust Speed Precip Events Conditions
12:00 AM 62.6 °F 60.8 °F 94% 30.18 in 6.2 mi ENE 6.9 mph - N/A   Mostly Cloudy
1:00 AM 62.6 °F 60.8 °F 94% 30.15 in 6.2 mi South 4.6 mph - N/A   Mostly Cloudy
2:00 AM 62.6 °F 59.0 °F 88% 30.12 in 6.2 mi ESE 9.2 mph - N/A   Mostly Cloudy
3:00 AM 62 °F 59 °F 88%  in 19 mi South 2.3 mph - -   Partly Cloudy
3:00 AM 62.6 °F 59.0 °F 88% 30.12 in 6.2 mi South 2.3 mph - N/A   Mostly Cloudy
4:00 AM 62.6 °F 59.0 °F 88% 30.12 in 6.2 mi WNW 3.5 mph - N/A   Mostly Cloudy
5:00 AM 62.6 °F 59.0 °F 88% 30.15 in 6.2 mi South 5.8 mph - N/A   Mostly Cloudy
6:00 AM 60.8 °F 57.2 °F 88% 30.15 in 6.2 mi South 4.6 mph - N/A   Light Drizzle
7:00 AM 60.8 °F 59.0 °F 94% 30.18 in 6.2 mi South 5.8 mph - N/A   Mostly Cloudy
8:00 AM 62.6 °F 59.0 °F 88% 30.21 in 6.2 mi South 6.9 mph - N/A   Mostly Cloudy
9:00 AM 64 °F 58 °F 75%  in 19 mi South 8.1 mph - -   Mostly Cloudy
9:00 AM 64.4 °F 57.2 °F 77% 30.21 in 6.2 mi South 8.1 mph - N/A   Mostly Cloudy
10:00 AM 66.2 °F 57.2 °F 73% 30.21 in 6.2 mi SSE 4.6 mph - N/A   Mostly Cloudy
11:00 AM 68.0 °F 59.0 °F 73% 30.21 in 6.2 mi SSE 4.6 mph - N/A   Mostly Cloudy
12:00 PM 71.6 °F 57.2 °F 60% 30.18 in 6.2 mi SE 5.8 mph - N/A   Mostly Cloudy
1:00 PM 73.4 °F 57.2 °F 57% 30.12 in 6.2 mi ESE 4.6 mph - N/A   Scattered Clouds
1:30 PM 75.2 °F 59.0 °F 57% 30.12 in 6.2 mi NE 5.8 mph - N/A   Scattered Clouds
2:00 PM 75.2 °F 59.0 °F 57% 30.09 in 6.2 mi South 11.5 mph - N/A   Mostly Cloudy
2:30 PM 75.2 °F 57.2 °F 53% 30.09 in 6.2 mi SSE 5.8 mph - N/A   Mostly Cloudy
3:00 PM 75 °F 58 °F 45%  in 19 mi ESE 4.6 mph - -   Mostly Cloudy
3:00 PM 75.2 °F 57.2 °F 53% 30.06 in 6.2 mi ESE 4.6 mph - N/A   Mostly Cloudy
3:30 PM 75.2 °F 57.2 °F 53% 30.06 in 6.2 mi ESE 16.1 mph - N/A Rain Light Rain Showers
4:00 PM 69.8 °F 59.0 °F 68% 30.06 in 6.2 mi ENE 9.2 mph - N/A Rain Light Rain Showers
5:00 PM 68.0 °F 60.8 °F 78% 30.06 in 6.2 mi North 8.1 mph - N/A Rain Light Rain Showers
6:00 PM 68.0 °F 59.0 °F 73% 30.09 in 6.2 mi Variable 3.5 mph - N/A   Mostly Cloudy
7:00 PM 66.2 °F 59.0 °F 78% 30.12 in 6.2 mi NNE 8.1 mph - N/A   Mostly Cloudy
8:00 PM 64.4 °F 59.0 °F 83% 30.12 in 6.2 mi NNE 13.8 mph - N/A   Mostly Cloudy
9:00 PM 64 °F 58 °F 77%  in 12 mi NNE 6.9 mph - -   Mostly Cloudy
9:00 PM 64.4 °F 59.0 °F 83% 30.15 in 6.2 mi NNE 6.9 mph - N/A   Mostly Cloudy
9:30 PM 64.4 °F 57.2 °F 77% 30.15 in 6.2 mi ENE 5.8 mph - N/A   Mostly Cloudy
10:00 PM 64.4 °F 57.2 °F 77% 30.18 in 6.2 mi ENE 11.5 mph - N/A   Mostly Cloudy
10:30 PM 64.4 °F 57.2 °F 77% 30.18 in 6.2 mi East 12.7 mph - N/A   Mostly Cloudy
11:00 PM 64.4 °F 57.2 °F 77% 30.18 in 6.2 mi East 13.8 mph - N/A   Scattered Clouds
11:30 PM 62.6 °F 57.2 °F 82% 30.18 in 6.2 mi ENE 13.8 mph - N/A   Scattered Clouds